Find Starlink 30238

NORAD ID: 57296 Int'l Des: 2023-096 Owner: SPXS Country: US Constellation: starlink decayed
LEOCIRCULAR
Vis

Historical Track — Feb 25, 2026

3D地球を読み込み中...

Starlink 30238について

説明を読み込み中...

高度履歴

Loading altitude history...

軌道要素

1 57296U 23096G 26055.85190638 .06797521 89360-5 43565-2 0 9990
2 57296 42.9662 211.0200 0023351 319.9929 39.9234 16.15839060146653
Epoch: Feb 24, 2026 • Age: 1241 hours

現在のステータス

Position data unavailable
打ち上げ日 Jul 10, 2023
運用期間 2.7 years
落下予定日 Feb 25, 2026
タイプ internet

技術仕様

分類 Payload
質量 730.00 kg
乾燥質量 700.00 kg
総質量 730.00 kg
長さ 0.30 m
直径 4.10 m
スパン 29.00 m
形状 Box + pan
製造者 SPXS
バスタイプ Starlink V2M
フェーズステータス Unknown Transfer Status
所有者/国 SPXS/US

Most Searched